Regional Weather Roundup
Issued by NWS

Home | Current Version | Previous Version | Text Only | Print | Product List | Glossary On
Versions: 1 2 3 4 5 6 7 8 9 10 11 12 13 14 15 16 17 18 19 20 21 22 23 24 25 26 27 28 29 30 31 32 33 34 35 36 37 38 39 40 41 42 43 44 45 46 47 48 49 50
000
ASUS43 KMKX 250111
RWRWI

WISCONSIN REGIONAL WEATHER ROUNDUP
NATIONAL WEATHER SERVICE MILWAUKEE/SULLIVAN WI
800 PM CDT FRI APR 24 2015

NOTE: "FAIR" INDICATES FEW OR NO CLOUDS BELOW 12,000 FEET WITH NO
SIGNIFICANT WEATHER AND/OR OBSTRUCTIONS TO VISIBILITY.

WIZ001-002-006>008-014>016-023>028-250200-
NORTHWEST WISCONSIN

CITY           SKY/WX    TMP DP  RH WIND       PRES   REMARKS
SUPERIOR ARPT  CLOUDY    35  31  84 NE14G23   29.93S WCI  26
ASHLAND        CLOUDY    37  30  75 NE10      29.96S WCI  30
HAYWARD        CLOUDY    40  33  76 E8        29.90R WCI  34
SIREN          CLOUDY    47  26  44 E6        29.86R
CUMBERLAND     CLOUDY    46  30  53 SE12      29.85S
RICE LAKE      CLOUDY    49  29  46 SE12      29.87S
CHETEK         CLOUDY    49  31  50 E9        29.87S
LADYSMITH      CLOUDY    47  25  41 E10       29.90R
EAU CLAIRE     CLOUDY    47  32  56 SE15      29.87R
MENOMONIE      CLOUDY    46  35  64 E10       29.86F
NEW RICHMOND   CLOUDY    45  37  74 SE7       29.84S
OSCEOLA        CLOUDY    47  37  68 SE14      29.87R
$$

WIZ003>005-009-010-017-018-250200-
NORTH CENTRAL WISCONSIN

CITY           SKY/WX    TMP DP  RH WIND       PRES   REMARKS
MANITOWISH WTR CLOUDY    40  31  70 E5        29.93F
ARBOR VITAE    CLOUDY    43  32  65 SE5       29.93S
WOODRUFF       CLOUDY    43  32  65 SE5       29.93S
RHINELANDER    CLOUDY    45  25  45 E7        29.94S
EAGLE RIVER    CLOUDY    42  25  49 CALM      29.94S
LAND O LAKES   CLOUDY    42  29  59 CALM      29.95S
PHILLIPS       CLOUDY    43  28  55 E7        29.90S
TOMAHAWK       CLOUDY    46  21  36 E3        29.92S
MEDFORD        CLOUDY    49  25  39 SE8       29.89R
MERRILL        CLOUDY    48  26  42 SE12      29.92R
$$

WIZ029-030-035-036-043>047-250200-
CENTRAL WISCONSIN

CITY           SKY/WX    TMP DP  RH WIND       PRES   REMARKS
WAUSAU         CLOUDY    48  25  40 E16       29.91R
MOSINEE        CLOUDY    48  27  43 E7        29.92R
MARSHFIELD     CLOUDY    49  25  39 SE14      29.89S
STEVENS POINT  CLOUDY    45  21  39 E14       29.94R
WAUPACA        CLOUDY    47  20  34 E10       29.96S
WAUTOMA        LGT RAIN  42  41  97 SE7       29.95S FOG
WISC RAPIDS    CLOUDY    48  24  39 SE9       29.92R
CAMP DOUGLAS   LGT RAIN  41  41 100 E13       29.89S
$$

WIZ011>013-019>022-031-037>040-048>050-250200-
NORTHEAST WISCONSIN

CITY           SKY/WX    TMP DP  RH WIND       PRES   REMARKS
ANTIGO         CLOUDY    42  26  52 E12G17    29.95S
SHAWANO        CLOUDY    45  23  42 E6        29.98R
OCONTO         CLOUDY    40  21  47 SE6       29.99F
STURGEON BAY   CLOUDY    37  21  52 E9        30.02F WCI  31
GREEN BAY      CLOUDY    43  23  45 E7        29.98F
MANITOWOC      CLOUDY    39  25  57 E7        29.99F WCI  34
APPLETON       CLOUDY    43  16  33 SE8       29.97S
CLINTONVILLE   CLOUDY    45  23  42 SE5       29.97S
OSHKOSH        LGT RAIN  41  30  65 SE15G22   29.96S
$$

WIZ032>034-041-042-053>061-250200-
SOUTHWEST WISCONSIN

CITY           SKY/WX    TMP DP  RH WIND       PRES   REMARKS
LA CROSSE      CLOUDY    46  41  82 VRB6      29.86F
SPARTA         CLOUDY    42  38  87 E8        29.89S
VIROQUA        CLOUDY    41  41 100 E16       29.86R
BOSCOBEL       CLOUDY    44  40  85 E8        29.87F
PRAIRIE DU CHI CLOUDY    45  38  78 E14       29.82F
PLATTEVILLE    CLOUDY    43  39  87 E16       29.85F
$$

WIZ056-057-062-063-064-067-068-250200-
SOUTH CENTRAL WISCONSIN

CITY           SKY/WX    TMP DP  RH WIND       PRES   REMARKS
REEDSBURG      CLOUDY    41  38  88 E6        29.90S
BARABOO/DELLS  CLOUDY    41  37  87 E10       29.91S
LONE ROCK      CLOUDY    43  38  82 E15       29.89F
MINERAL POINT  CLOUDY    43  39  87 E13       29.86F
MADISON        LGT RAIN  41  37  86 E13       29.93R
MIDDLETON      CLOUDY    43  39  85 E12       29.92F
WATERTOWN      LGT RAIN  38  36  92 E9        29.95R WCI  32
MONROE         CLOUDY    41  37  87 E8        29.89R
JANESVILLE     CLOUDY    43  39  87 E12       29.90S
$$

WIZ051-052-058>065-066-070>072-250200-
SOUTHEAST WISCONSIN

CITY           SKY/WX    TMP DP  RH WIND       PRES   REMARKS
MILWAUKEE      LGT RAIN  39  32  76 E6        29.97S WCI  35
WAUKESHA       CLOUDY    37  34  87 E7        29.97F WCI  32
MILWAUKEE/TIMM DRIZZLE   39  34  81 CALM      29.98S
RACINE         LGT RAIN  40  33  76 E9        29.97F WCI  34
BURLINGTON     CLOUDY    38  35  87 E9        29.93F WCI  32
KENOSHA        LGT RAIN  39  35  86 NE12      29.93F WCI  32
FOND DU LAC    LGT RAIN  39  33  79 SE7       29.98R WCI  34
SHEBOYGAN      CLOUDY    38  28  67 E3        29.99F
WEST BEND      CLOUDY    36  32  87 E5        29.98S WCI  32
JUNEAU         DRIZZLE   38  35  87 E9        29.97S WCI  32
$$

LSZ147-162-250200-
LAKE SUPERIOR

STATION/POSITION TIME  TEMP    WIND        PRES    WAVE
                       AIR SEA DIR/SP/G            HT/PER
                 (UTC) (F)     (DEG/KT/KT) (MB)    (FT/S)
W MID LAKE BUOY  0050   35 34   70/ 17/ 19 1017.1R   3/ 5
DEVILS ISLAND    0100   35      60/ 12/ 14 1016.5R
PORT WING        0040   40      40/ 11/ 13 1014.6R
SAXON HARBOR     0000   38      CALM  /  2 1014.6
$$

LMZ867-665-643>646-250200-
LAKE MICHIGAN

STATION/POSITION TIME  TEMP    WIND        PRES    WAVE
                       AIR SEA DIR/SP/G            HT/PER
                 (UTC) (F)     (DEG/KT/KT) (MB)    (FT/S)
CHAMBERS ISLAND  0000   39     120/  8/ 11 1016.6R
NORTHPORT PIER   0000   37     140/  9/ 10 1016.6S
SISTER BAY       0032   37     150/  8/ 10   N/A
KEWAUNEE LAKESHO 0000   37      60/  3/  8 1015.3S
SHEBOYGAN LAKESH 0100   37     100/  3/  4 1016.6F
PORT WASHINGTON  0040   39      70/  5/  7 1016.3S
MILWAUKEE LAKESH 0000   38     100/  5/  6   N/A
KENOSHA   LAKESH 0100   40      70/ 15/ 17 1013.9F
$$

TC  - TEMPERATURE IN CELSIUS
VSB - VISIBILITY IN STATUTE MILES
WCI - WIND CHILL INDEX
HX  - HEAT INDEX



USA.gov is the U.S. government's official web portal to all federal, state and local government web resources and services.